Location: Lugrin
(46.4033°N, 6.6674°E)
Time: 16:43:01
(UTC+00:00)

Cosmos 1025 Rocket - Pass Details

Date: 18 September 2020
Orbit: 595 x 617 km, 82.5° (Epoch: 28 October)

Event Time Altitude Azimuth Distance (km) Brightness Sun altitude
Rises 18:45:59 0° 355° (N) 2,886 6.8 -12.3°
Reaches altitude 10° 18:48:17 10° 2° (N) 1,980 5.8 -12.7°
Maximum altitude 18:52:32 48° 77° (ENE) 808 3.3 -13.4°
Enters shadow 18:56:08 14° 149° (SSE) 1,730 4.9 -14.0°
